Weather History for Albany, GA

Change the Weather History Date:

Thursday, March 14, 2013

  Actual Average Record
Temperature  
Mean Temperature 49 °F 59 °F  
Max Temperature 61 °F 72 °F 86 °F (1982)
Min Temperature 36 °F 46 °F 24 °F (1969)
Degree Days  
Heating Degree Days 16 7  
Month to date heating degree days 206 119  
Since 1 July heating degree days 1478 1679  
Cooling Degree Days 0 1  
Month to date cooling degree days 1 14  
Year to date cooling degree days 28 23  
Moisture  
Dew Point 23 °F    
Average Humidity 45    
Maximum Humidity 70    
Minimum Humidity 19    
Precipitation  
Precipitation 0.00 in - 0.38 in (2006)
Month to date precipitation 0.80  
Year to date precipitation 10.89  
Sea Level Pressure  
Sea Level Pressure 30.32 in    
Wind  
Wind Speed 6 mph (NNW)    
Max Wind Speed 15 mph    
Max Gust Speed 20 mph    
Visibility 9 miles    
Events      
T = Trace of Precipitation, MM = Missing Value Source: NWS Daily Summary

Daily Weather History Graph

Daily Weather History Graph

Search for Another Location

Airport:

Trip Planner

Search our weather history database for the weather conditions in past years. The results will help you decide how hot, cold, wet, or windy it might be!

Date:

Astronomy

Mar. 14, 2013 Rise Set
Actual Time 7:47 AM EDT 7:44 PM EDT
Civil Twilight 7:23 AM EDT 8:08 PM EDT
Nautical Twilight 6:55 AM EDT 8:36 PM EDT
Astronomical Twilight 6:27 AM EDT 9:05 PM EDT
Moon 9:14 AM EDT (3/14) 10:44 PM EDT (3/14)
Length of Visible Light 12h 45m
Length of Day
11h 56m
Waxing Crescent, 9% of the Moon is Illuminated
Mar 14
Waxing Crescent
Mar 19
First Quarter
Mar 27
Full
Apr 3
Last Quarter
Apr 10
New

Hourly Weather History & Observations

Time (EDT) Temp. Windchill Dew Point Humidity Pressure Visibility Wind Dir Wind Speed Gust Speed Precip Events Conditions
12:53 AM 48.0 °F - 21.9 °F 36% 30.27 in 10.0 mi NNW 11.5 mph - N/A   Clear
1:53 AM 45.0 °F 42.6 °F 23.0 °F 42% 30.29 in 10.0 mi NNW 4.6 mph - N/A   Clear
2:53 AM 43.0 °F 40.3 °F 23.0 °F 45% 30.30 in 10.0 mi NNW 4.6 mph - N/A   Clear
3:53 AM 41.0 °F 38.0 °F 24.1 °F 51% 30.30 in 10.0 mi NNW 4.6 mph - N/A   Clear
4:53 AM 41.0 °F 35.8 °F 23.0 °F 49% 30.30 in 10.0 mi NNW 8.1 mph - N/A   Clear
5:53 AM 39.9 °F 32.9 °F 21.9 °F 49% 30.32 in 10.0 mi North 11.5 mph 17.3 mph N/A   Clear
6:53 AM 39.0 °F 32.8 °F 21.9 °F 50% 30.34 in 10.0 mi NNW 9.2 mph - N/A   Clear
7:53 AM 37.0 °F 32.4 °F 21.9 °F 54% 30.37 in 10.0 mi North 5.8 mph - N/A   Clear
8:53 AM 37.9 °F 32.7 °F 24.1 °F 57% 30.40 in 10.0 mi North 6.9 mph - N/A   Clear
9:53 AM 41.0 °F 33.9 °F 19.9 °F 43% 30.41 in 10.0 mi North 12.7 mph 17.3 mph N/A   Clear
10:53 AM 44.1 °F 39.0 °F 21.0 °F 40% 30.42 in 10.0 mi NNW 9.2 mph - N/A   Clear
11:53 AM 46.9 °F - 21.0 °F 36% 30.40 in 10.0 mi Variable 4.6 mph - N/A   Clear
1:53 PM 54.0 °F - 21.0 °F 28% 30.35 in 10.0 mi North 5.8 mph - N/A   Clear
2:53 PM 57.0 °F - 19.9 °F 24% 30.32 in 10.0 mi North 5.8 mph 18.4 mph N/A   Clear
3:53 PM 59.0 °F - 19.0 °F 21% 30.30 in 10.0 mi North 11.5 mph 16.1 mph N/A   Clear
4:53 PM 60.1 °F - 19.9 °F 21% 30.28 in 10.0 mi NW 9.2 mph - N/A   Clear
5:53 PM 61.0 °F - 17.1 °F 18% 30.26 in 10.0 mi NNW 9.2 mph - N/A   Clear
6:53 PM 59.0 °F - 17.1 °F 20% 30.26 in 5.0 mi NNW 9.2 mph - N/A   Haze
7:53 PM 54.0 °F - 23.0 °F 30% 30.27 in 4.0 mi Calm Calm - N/A   Haze
8:53 PM 48.0 °F - 28.0 °F 46% 30.27 in 6.0 mi Calm Calm - N/A   Haze
9:53 PM 45.0 °F - 28.0 °F 52% 30.29 in 7.0 mi Calm Calm - N/A   Clear
10:53 PM 42.1 °F - 30.0 °F 62% 30.30 in 6.0 mi Calm Calm - N/A   Haze
11:53 PM 39.9 °F - 30.9 °F 70% 30.31 in 7.0 mi Calm Calm - N/A   Clear